Location: Agadir Mansour Mhndou
(31.2424°N, 8.7730°W)
Time: 17:59:51
(UTC+00:00)

Cosmos 2366 rocket - Pass Details

Date: 16 October 2021
Orbit: 955 x 996 km, 82.9° (Epoch: 07 December)

Event Time Altitude Azimuth Distance (km) Brightness Sun altitude
Rises 18:16:06 0° 188° (S) 3,618 7.2 -3.8°
Reaches altitude 10° 18:18:35 10° 190° (S) 2,677 6.6 -4.3°
Maximum altitude 18:24:42 76° 276° (W) 991 4.3 -5.6°
Drops below altitude 10° 18:30:54 10° 2° (N) 2,711 6.3 -6.9°
Sets 18:33:26 0° 4° (N) 3,667 6.9 -7.5°
